Tracking 28125 objects as of 2-Oct-2023
HD Live streaming from Space Station
objects crossing your sky now

STARLINK-2575

Track STARLINK-2575 now!
10-day predictions
STARLINK-2575 is classified as:


NORAD ID: 48396
Int'l Code: 2021-038AV
Perigee: 553.2 km
Apogee: 555.7 km
Inclination: 53.1 °
Period: 95.6 minutes
Semi major axis: 6925 km
RCS: Unknown
Launch date: May 4, 2021
Source: United States (US)
Launch site: AIR FORCE EASTERN TEST RANGE (AFETR)
Your satellite tracking list
Your tracking list is empty




NASA's NSSDC Master Catalog

Two Line Element Set (TLE):
1 48396U 21038AV  23275.44491625  .00009931  00000-0  68525-3 0  9999
2 48396  53.0558  13.5966 0001807 101.0751 259.0441 15.06366173133863
Source of the keplerian elements: AFSPC